FW8758 Weather Reports


time (UTC)temp
C
wind
direction
speed
KPH
gust
KPH
rain 1hr
cm
rain 24hr
cm
rain mn
cm
humidity
%
barometer
mb
20260508004535 6 187 0.0 3.2 0.00 0.08 0.08 80 1007.6
20260508003038 6 274 1.6 4.8 0.00 0.08 0.08 80 1007.6
20260508001536 6 226 0.0 3.2 0.00 0.08 0.08 79 1007.2
20260508000034 7 33 0.0 3.2 0.00 0.08 0.08 74 1007.0
20260507234536 7 23 0.0 11.3 0.00 0.08 0.08 74 1006.8
20260507233035 8 0 0.0 3.2 0.00 0.05 0.05 72 1006.6
20260507231546 8 0 0.0 6.4 0.00 0.05 0.05 72 1006.6
20260507230034 8 0 0.0 3.2 0.00 0.05 0.05 72 1006.5
20260507224536 8 113 0.0 3.2 0.00 0.05 0.05 68 1006.3
20260507223030 10 287 1.6 6.4 0.00 0.05 0.05 63 1006.2
20260507221535 10 198 1.6 8.0 0.00 0.05 0.05 63 1006.2
20260507220035 10 338 3.2 12.9 0.00 0.05 0.05 61 1006.1
20260507214534 10 126 3.2 17.7 0.00 0.05 0.05 64 1005.9
20260507213034 10 250 4.8 19.3 0.00 0.05 0.05 65 1005.6
20260507211532 10 281 4.8 19.3 0.00 0.05 0.05 60 1005.3
20260507210036 8 173 1.6 11.3 0.00 0.05 0.05 75 1005.4
20260507204534 7 202 1.6 9.7 0.00 0.05 0.05 77 1005.5
20260507203040 7 274 6.4 19.3 0.05 0.05 0.05 74 1005.5
20260507201539 7 121 0.0 4.8 0.05 0.05 0.05 79 1005.3
20260507200045 7 0 0.0 3.2 0.05 0.05 0.05 78 1005.5
20260507194534 7 67 0.0 3.2 0.03 0.03 0.03 78 1005.4
20260507193035 8 9 0.0 6.4 0.00 0.00 0.00 73 1005.3
20260507191535 10 329 1.6 14.5 0.00 0.00 0.00 70 1005.2
20260507190034 10 57 9.7 24.1 0.00 0.00 0.00 57 1004.8
20260507184536 10 246 6.4 17.7 0.00 0.00 0.00 59 1004.8
20260507183040 9 219 1.6 8.0 0.00 0.00 0.00 67 1004.7
20260507181535 8 232 0.0 4.8 0.00 0.00 0.00 71 1004.6
20260507180041 8 294 0.0 4.8 0.00 0.00 0.00 73 1004.7
20260507174536 8 0 0.0 4.8 0.00 0.00 0.00 75 1004.8
20260507173044 8 317 0.0 4.8 0.00 0.00 0.00 70 1004.5
20260507171551 10 241 6.4 24.1 0.00 0.00 0.00 60 1004.5
20260507170035 10 205 9.7 20.9 0.00 0.00 0.00 56 1004.4
20260507164548 10 183 8.0 27.4 0.00 0.08 0.00 57 1004.5
20260507163034 11 246 12.9 27.4 0.00 0.08 0.00 54 1004.8
20260507161540 10 244 11.3 24.1 0.00 0.08 0.00 54 1004.8
20260507160039 10 238 8.0 30.6 0.00 0.08 0.00 57 1004.9
20260507154538 10 291 8.0 25.7 0.00 0.20 0.00 59 1005.1
20260507153033 10 184 11.3 24.1 0.00 0.20 0.00 60 1005.2
20260507151539 8 265 11.3 24.1 0.00 0.20 0.00 63 1005.4
20260507150036 8 257 11.3 24.1 0.00 0.20 0.00 66 1005.5
20260507144535 7 286 8.0 19.3 0.00 0.36 0.00 68 1005.4
20260507143036 8 273 9.7 19.3 0.00 0.36 0.00 67 1005.4
20260507141533 7 236 8.0 22.5 0.00 0.36 0.00 69 1005.7
20260507140034 7 164 8.0 17.7 0.00 0.36 0.00 76 1005.6
20260507134547 6 236 3.2 16.1 0.00 0.46 0.00 80 1005.6
20260507133035 7 265 3.2 12.9 0.00 0.46 0.00 83 1005.7
20260507131538 7 205 4.8 17.7 0.00 0.46 0.00 80 1005.8
20260507130034 7 229 9.7 19.3 0.00 0.46 0.00 80 1005.8
20260507124534 7 257 4.8 20.9 0.00 0.53 0.00 83 1006.0
20260507123030 7 254 8.0 22.5 0.00 0.53 0.00 82 1005.9
20260507121535 7 246 4.8 16.1 0.00 0.53 0.00 83 1005.8
20260507120035 7 173 3.2 11.3 0.00 0.53 0.00 83 1005.6
20260507114535 7 241 4.8 14.5 0.00 0.58 0.00 83 1005.9
20260507113033 6 190 4.8 11.3 0.00 0.58 0.00 83 1005.6
20260507111536 6 238 3.2 8.0 0.00 0.58 0.00 86 1005.6
20260507110047 6 265 1.6 6.4 0.00 0.58 0.00 87 1005.8
20260507104535 5 203 0.0 3.2 0.00 0.66 0.00 88 1005.8
20260507103032 5 241 0.0 3.2 0.00 0.66 0.00 88 1005.9
20260507101541 5 0 0.0 3.2 0.00 0.66 0.00 89 1005.9
20260507100036 4 0 0.0 3.2 0.00 0.66 0.00 88 1005.8
20260507094536 4 0 0.0 0.0 0.00 0.66 0.00 88 1005.7
20260507093035 5 0 0.0 3.2 0.00 0.66 0.00 87 1005.8
20260507091537 5 0 0.0 3.2 0.00 0.66 0.00 87 1005.8
20260507090039 5 0 0.0 3.2 0.00 0.66 0.00 86 1005.9
20260507084540 5 0 0.0 4.8 0.00 0.66 0.00 86 1005.8
20260507083038 5 278 0.0 8.0 0.00 0.66 0.00 86 1005.9
20260507081535 5 250 1.6 4.8 0.00 0.66 0.00 86 1006.0
20260507080034 5 186 1.6 6.4 0.00 0.66 0.00 86 1005.9
20260507074543 5 250 0.0 4.8 0.00 0.66 0.00 86 1006.0
20260507073030 5 221 0.0 3.2 0.00 0.66 0.00 85 1005.9
20260507071532 5 258 1.6 3.2 0.00 0.66 0.00 85 1006.1
20260507070044 6 0 0.0 3.2 0.00 0.66 0.00 84 1005.8
20260507064538 6 158 0.0 4.8 0.00 0.66 0.00 84 1006.0
20260507063036 6 225 1.6 6.4 0.00 0.66 0.00 84 1006.2
20260507061530 6 248 1.6 6.4 0.00 0.66 0.00 84 1006.2
20260507060032 6 203 0.0 6.4 0.00 0.66 0.00 84 1006.4
20260507054535 6 235 3.2 8.0 0.00 0.66 0.00 85 1006.4
20260507053038 5 215 1.6 4.8 0.00 0.66 0.00 86 1006.8
20260507051540 5 224 0.0 3.2 0.00 0.66 0.00 86 1006.9
20260507050041 5 0 0.0 3.2 0.00 0.66 0.00 86 1007.0
20260507044534 5 0 0.0 3.2 0.00 0.66 0.00 85 1007.2
20260507043036 5 0 0.0 4.8 0.00 0.66 0.00 85 1007.4
20260507041537 5 227 0.0 3.2 0.00 0.66 0.00 85 1007.5
20260507040035 5 0 0.0 0.0 0.00 0.66 0.00 84 1007.4
20260507034551 5 0 0.0 3.2 0.00 0.66 0.66 84 1007.5
20260507033042 5 0 0.0 3.2 0.00 0.66 0.66 84 1007.7
20260507031536 5 0 0.0 4.8 0.00 0.66 0.66 83 1007.8
20260507030036 6 0 0.0 3.2 0.00 0.66 0.66 83 1007.9
20260507024548 6 0 0.0 3.2 0.00 0.66 0.66 83 1008.2
20260507023030 6 0 1.6 3.2 0.00 0.66 0.66 84 1008.2
20260507021545 5 0 0.0 3.2 0.00 0.66 0.66 83 1008.6
20260507020035 6 0 0.0 3.2 0.00 0.66 0.66 83 1008.5
20260507014540 6 0 0.0 3.2 0.00 0.66 0.66 83 1008.5
20260507013034 6 230 0.0 3.2 0.00 0.66 0.66 84 1008.4
20260507011539 6 223 0.0 3.2 0.00 0.66 0.66 84 1008.4
20260507010042 6 198 0.0 3.2 0.00 0.66 0.66 84 1008.4